Back to catalog

CZ-6A DEB

AliveSSO
NORAD 56607·DEBRIS·🇨🇳 China

Launched Nov 11, 2022 from Taiyuan Satellite Launch Center

Loading…

Next Passes (next 24 hours)

TLE

FreshSource: Space-Track

Epoch: Sep 13, 2026, 18:48 UTC

1 56607U 22151AEF 26256.78383143  .00000344  00000-0  13945-3 0  9999
2 56607  98.6864 282.6677 0115059 194.7319 165.0501 14.30392596176778

Track CZ-6A DEB in real time with AllMySat

Download on the App Store